Date,TemperatureHighF,TemperatureAvgF,TemperatureLowF,DewpointHighF,DewpointAvgF,DewpointLowF,HumidityHigh,HumidityAvg,HumidityLow,PressureMaxIn,PressureMinIn,WindSpeedMaxMPH,WindSpeedAvgMPH,GustSpeedMaxMPH,PrecipitationSumIn
2013-7-1,82.5,75.7,70.9,75.9,72.1,68.4,96,89,73,29.96,29.82,5,1,10,0.08
2013-7-2,81.1,75.5,72.7,76.5,73.0,71.6,97,92,82,30.15,29.96,5,1,14,0.09
2013-7-3,84.6,75.2,71.2,79.9,73.5,70.3,98,95,80,30.21,30.15,3,0,7,1.16
2013-7-4,88.3,79.6,73.1,78.2,73.9,72.2,98,84,63,30.24,30.14,7,1,11,0.00
2013-7-5,88.7,80.7,72.4,78.9,73.5,70.7,95,80,61,30.21,30.10,9,1,15,0.00
2013-7-6,91.9,82.3,73.6,78.2,73.9,70.9,95,77,57,30.16,30.05,10,1,11,0.00
2013-7-7,90.2,79.3,70.4,78.6,72.8,68.8,96,82,63,30.09,29.97,10,2,19,0.18
2013-7-8,84.3,76.1,70.1,74.7,70.7,68.6,98,85,60,30.09,30.01,7,1,9,0.16
2013-7-9,83.9,77.1,70.8,76.3,72.7,69.2,95,87,72,30.08,29.98,3,0,7,0.01
2013-7-10,87.8,78.2,72.2,79.4,74.3,71.0,96,88,68,30.00,29.83,6,1,17,0.13
2013-7-11,84.8,76.8,72.1,74.5,71.7,69.6,97,85,64,29.90,29.82,6,1,10,0.00
2013-7-12,74.4,69.2,66.4,71.6,67.6,64.9,97,95,89,30.01,29.88,8,1,11,1.57
2013-7-13,84.4,75.4,68.6,76.4,71.1,67.6,98,87,71,30.25,30.01,5,0,8,0.00
2013-7-14,89.1,80.3,74.0,78.2,73.7,70.6,98,82,60,30.31,30.24,6,1,7,0.00
2013-7-15,91.8,82.7,73.0,78.0,74.0,71.4,95,76,56,30.28,30.16,5,1,0,0.00
2013-7-16,92.8,84.2,76.9,78.9,73.1,69.7,86,70,52,30.22,30.14,8,2,10,0.00
2013-7-17,93.1,84.7,78.0,80.5,73.5,70.0,83,70,52,30.19,30.06,8,1,8,0.00
2013-7-18,95.0,85.5,77.4,81.8,76.8,73.1,88,76,55,30.09,29.97,5,1,7,0.00
2013-7-19,95.3,86.2,78.1,82.2,76.8,69.8,90,75,58,29.99,29.84,11,2,11,0.00
2013-7-20,91.5,83.2,76.7,79.5,74.6,69.7,92,76,57,29.88,29.76,11,2,12,0.00
2013-7-21,90.7,79.7,73.5,77.0,72.5,68.3,94,79,55,29.92,29.84,6,1,8,0.02
2013-7-22,88.9,79.4,72.5,77.6,73.8,69.6,96,84,63,29.91,29.73,7,0,9,0.02
2013-7-23,86.5,78.7,72.0,75.7,71.1,68.0,96,79,58,29.74,29.62,11,2,14,0.00
2013-7-24,83.0,76.6,72.2,72.4,66.6,59.7,85,72,57,29.89,29.66,10,3,13,0.00
2013-7-25,78.8,70.4,61.6,64.9,58.8,53.6,86,67,52,30.02,29.89,8,2,13,0.00
2013-7-26,82.6,72.0,62.5,67.6,62.4,59.6,94,73,50,30.08,30.00,5,1,7,0.00
2013-7-27,85.4,72.9,66.2,74.1,68.4,62.2,97,87,63,30.04,29.91,7,1,11,0.30
2013-7-28,83.8,73.7,67.9,74.8,69.8,67.0,97,88,62,29.97,29.87,5,0,8,0.07
2013-7-29,82.1,73.0,65.4,68.9,61.0,54.2,94,68,44,30.15,29.96,12,2,12,0.00
2013-7-30,82.0,73.0,64.5,65.2,61.1,57.3,79,67,49,30.21,30.12,5,1,7,0.00
2013-7-31,78.6,72.4,67.2,70.4,66.8,62.7,96,83,72,30.13,30.00,7,0,7,0.05